Regional Weather Roundup
Issued by NWS Upton, NY

Current Version | Previous Version | Graphics & Text | Print | Product List | Glossary Off
Versions: 1 2 3 4 5 6 7 8 9 10 11 12 13 14 15 16 17 18 19 20 21 22 23 24 25 26 27 28 29 30 31 32 33 34 35 36 37 38 39 40 41 42 43 44 45 46 47 48 49 50

000
ASUS41 KOKX 282204
RWROKX

REGIONAL WEATHER ROUNDUP
NATIONAL WEATHER SERVICE NEW YORK NY
600 PM EDT FRI AUG 28 2015

NOTE: "FAIR" INDICATES FEW OR NO CLOUDS BELOW 12,000 FEET WITH NO
SIGNIFICANT WEATHER AND/OR OBSTRUCTIONS TO VISIBILITY.

NYZ071-072-176-178-NJZ106-104-282300-
NEW YORK CITY METRO AREA


CITY           SKY/WX    TMP DP  RH WIND       PRES   REMARKS
CENTRAL PARK   MOSUNNY   80  50  34 VRB6      30.15F
LAGUARDIA APRT MOSUNNY   80  51  36 CALM      30.12S
KENNEDY INTL   MOSUNNY   79  54  41 SW15      30.13S
NEWARK/LIBERTY MOSUNNY   81  51  35 W7        30.13S
BRNX BOT. GARD   N/A     79  52  38 NE2       30.14F
TETERBORO      SUNNY     80  49  33 NW7       30.11F
$$

NYZ177-179-078>081-282300-
LONG ISLAND NEW YORK

CITY           SKY/WX    TMP DP  RH WIND       PRES   REMARKS
FARMINGDALE    SUNNY     77  55  46 SW13      30.14R
ISLIP          MOSUNNY   77  56  48 SW8       30.12R
SHIRLEY        SUNNY     76  57  51 SW8       30.14R
WESTHAMPTON    SUNNY     75  58  55 S7        30.15S
MONTAUK POINT    N/A     75  62  64 SW5       30.14S
$$

NYZ052-065-067-282300-
HUDSON VALLEY

CITY           SKY/WX    TMP DP  RH WIND       PRES   REMARKS
WHITE PLAINS   MOSUNNY   77  51  40 NW5       30.14S
NEWBURGH       MOSUNNY   75  55  50 NW5       30.16S
MONTGOMERY     PTSUNNY   75  56  51 W6        30.14S
POUGHKEEPSIE   SUNNY     78  52  40 W3        30.13S
ALBANY         PTSUNNY   74  55  51 W6        30.14S
$$

NJZ001-105-106-008-010-013-015-019>022-104-282300-
NEW JERSEY

CITY           SKY/WX    TMP DP  RH WIND       PRES   REMARKS
NEWARK/LIBERTY MOSUNNY   81  51  35 W7        30.13S
TETERBORO      SUNNY     80  49  33 NW7       30.11F
CALDWELL       SUNNY     79  52  38 NW6       30.14S
MORRISTOWN     MOSUNNY   79  55  44 N5        30.14S
SOMERVILLE     SUNNY     79  53  40 CALM      30.12F
SUSSEX         MOSUNNY   75  52  44 W6        30.16R
ANDOVER          N/A     76  55  48 CALM      30.16
TRENTON        SUNNY     79  54  41 VRB3      30.14S
MILLVILLE      CLOUDY    81  56  42 W7        30.14S
ATLANTIC CITY  SUNNY     77  57  50 S10       30.14S
WRIGHTSTOWN    SUNNY     79  56  45 NW2       30.11F
TOMS RIVER     SUNNY     79  54  41 NW6       30.15R
BELMAR         PTSUNNY   75  57  53 S6        30.15S
$$

PAZ047>061-062-071-282300-
EASTERN PENNSYLVANIA

CITY           SKY/WX    TMP DP  RH WIND       PRES   REMARKS
PHILADELPHIA   MOSUNNY   83  52  34 NW8       30.14S
ALLENTOWN      SUNNY     77  54  44 W6        30.15S
SCRANTON       MOSUNNY   76  52  43 NW5       30.17S
$$

CTZ002-004>006-009-010-012-RIZ004-006-007-MAZ004-011-015-282300-
SOUTHERN NEW ENGLAND
 IN CT

CITY           SKY/WX    TMP DP  RH WIND       PRES   REMARKS
BRADLEY INTL   MOSUNNY   79  55  43 NW5       30.12R
HARTFORD       MOSUNNY   79  53  40 N3        30.11S
DANBURY        SUNNY     74  52  46 VRB3      30.15S
WTRBRY/OXFORD  MOSUNNY   75  54  46 NW7       30.17R
BRIDGEPORT     SUNNY     77  54  44 S9        30.13S
MERIDEN        SUNNY     80  52  37 NW5       30.12R
NEW HAVEN      MOSUNNY   75  54  47 SW6       30.13S
CHESTER        NOT AVBL
GROTON         SUNNY     74  58  57 SW8       30.12R
WILLIMANTIC    SUNNY     77  52  41 W6        30.13R

 IN RI

CITY           SKY/WX    TMP DP  RH WIND       PRES   REMARKS
PROVIDENCE     MOSUNNY   77  58  51 SE8       30.11S
BLOCK ISLAND   SUNNY     73  59  60 SW7       30.13S
WESTERLY       SUNNY     75  58  55 SW8       30.13S

 IN MA

CITY           SKY/WX    TMP DP  RH WIND       PRES   REMARKS
BOSTON         MOSUNNY   72  61  68 E10       30.11R
WORCESTER      SUNNY     73  51  46 W5        30.15R
WESTFIELD      SUNNY     77  54  44 W5        30.12S
PROVINCETOWN   SUNNY     73  57  56 SE5       30.12S
NANTUCKET      SUNNY     73  57  57 SW8       30.13S
$$

ANZ330-335-338-340-345-350-353-355-282300-
COASTAL MARINE OBSERVATIONS


STATION/POSITION TIME  SKY/WX   TEMP    WIND        PRES    VSBY  WAVE
                                AIR SEA DIR/SP/G                  HT/PER
                 (UTC)          (F)     (DEG/KT/KT) (MB)    (MI)  (FT/S)
NY HARB ENTRANCE 2050            75 78  180/  8/ 10 1020.2          2/10
4S FIRE IS       NOT AVBL
20S FIRE ISLAND  2050            73 76  300/  4/  6 1020.4          3/11
GREAT SOUTH BAY  2100            74 79  240/ 10/ 10   N/A
23SW MTP         2150            72 76  250/  4/  6 1020.2          3/11
HUDSON CANYON    NOT AVBL
KINGS POINT      NOT AVBL
EXECUTION ROCKS  2100            76     120/  4/  4   N/A
CENTRAL LI SOUND NOT AVBL
EASTERN LI SOUND 2100            75 71  220/  8/  8   N/A
ROBBINS REEF     NOT AVBL
$$


>>>>>>>>>>>>>>>>>>>>>>>>>>>> KEY <<<<<<<<<<<<<<<<<<<<<<<<<<<
>                                                          <
>     SKY/WX - SKY CONDITION/PRESENT WEATHER               <
>     TMP    - TEMPERATURE IN FAHRENHEIT                   <
>     DP     - DEWPOINT IN FAHRENHEIT                      <
>     RH     - RELATIVE HUMIDITY IN PERCENT                <
>     WIND   - DIRECTION AND SPEED IN MPH                  <
>     PRES   - MEAN SEA LEVEL PRESSURE IN INCHES OF HG     <
>     WCI    - WIND CHILL INDEX                            <
>     VSB    - VISIBILITY IN MILES                         <
>     HX     - HEAT INDEX                                  <
>     TC     - TEMPERATURE IN CELSIUS                      <
>     VRB    - VARIABLE WIND DIRECTION                     <
>                                                          <
>>>>>>>>>>>>>>>>>>>>>>>>>>>> KEY <<<<<<<<<<<<<<<<<<<<<<<<<<<





USA.gov is the U.S. government's official web portal to all federal, state and local government web resources and services.